Theta_e
307 305 304 304 303 304 306 306 307 307 308 308 310 310 310 309 308 307 306 306 306 305
307 306 305 304 304 304 306 307 306 307 307 307 309 310 309 309 307 307 306 305 305 306
308 307 306 304 303 303 306 307 306 307 307 308 309 309 309 308 307 306 305 305 305 306
307 307 305 304 303 304 305 306 306 307 307 308 308 309 308 307 307 307 305 305 306 306
307 306 304 304 303 305 305 306 307 307 307 308 308 309 308 307 307 307 305 305 306 305
306 305 304 304 304 304 305 306 306 307 306 307 308 308 308 309 308 308 307 307 306 306
307 305 305 304 304 304 305 305 306 306 306 307 308 309 308 308 308 308 307 307 307 307
307 306 305 303 303 304 305 305 306 306 306 307 308 308 307 308 307 307 307 306 307 306
306 305 303 302 303 303 304 304 305 305 306 305 307 300 300 305 307 307 307 306 304 301
305 303 301 302 302 303 303 304 304 305 305 305 306 298 299 299 307 307 308 308 304 300
303 302 301 301 301 302 303 303 304 304 305 305 304 298 298 297 306 307 307 307 305 303
303 301 300 300 301 302 302 303 303 304 304 304 302 297 297 302 305 303 302 302 302 301
303 302 301 300 300 302 303 302 302 302 304 298 300 296 296 302 305 302 299 299 297 291
302 301 302 301 301 301 301 300 300 300 301 299 301 298 297 299 303 303 301 300 296 295
Wind_Speed
18 12 11 13 11 10 10 9 10 9 8 7 7 6 6 4 4 5 5 7 4 4
18 17 15 15 12 10 10 9 11 10 10 8 7 7 6 4 5 5 5 5 6 6
18 17 14 13 14 13 11 12 12 11 10 9 8 7 7 5 5 6 4 4 7 6
16 17 14 14 14 13 12 13 13 13 12 11 10 8 8 6 7 8 7 6 9 8
17 17 16 15 15 15 14 13 14 13 12 11 10 9 9 8 7 10 9 9 9 10
17 17 17 16 15 15 15 14 14 14 13 12 12 10 9 9 9 9 9 10 11 11
18 18 17 15 15 16 15 15 15 14 13 12 12 11 10 10 9 8 8 8 9 10
16 16 15 15 15 15 15 14 15 14 13 12 12 9 12 11 11 11 9 6 8 8
16 16 15 15 15 15 14 14 14 14 14 13 9 13 14 12 11 11 12 10 7 7
16 16 16 15 15 15 15 15 15 14 14 14 11 17 16 14 10 11 11 12 10 7
15 15 15 15 15 15 14 16 15 14 14 13 10 17 17 16 10 9 10 11 11 10
16 16 15 16 16 13 14 13 14 14 14 14 10 17 17 15 10 8 8 8 9 10
14 15 16 15 15 13 13 13 10 12 12 12 11 16 18 13 8 10 6 6 6 11
11 14 15 14 11 12 11 11 11 11 9 10 12 13 18 15 9 9 8 7 6 5
Wind_Direction
179 179 182 181 178 180 181 179 172 174 173 170 163 167 158 155 167 154 152 153 144 127
180 180 183 181 178 177 174 173 171 172 173 171 164 166 157 157 159 149 146 152 138 135
182 181 176 170 175 173 170 168 171 171 173 172 167 165 158 155 151 141 134 139 138 135
177 177 170 174 173 172 166 169 173 173 172 172 170 166 160 159 152 144 139 138 149 149
173 170 171 176 176 170 171 171 172 171 172 172 170 167 165 159 160 154 154 153 152 150
171 173 177 177 172 170 168 170 171 171 173 174 170 169 166 165 161 161 161 163 158 158
172 175 177 172 171 169 169 167 171 173 172 174 168 171 166 163 158 157 157 164 159 161
169 173 170 166 166 167 168 170 169 166 170 170 172 172 168 168 162 159 152 153 154 160
164 167 164 163 163 163 166 166 165 170 170 170 177 168 163 164 164 162 162 164 157 144
162 164 165 162 162 165 166 164 170 171 170 174 176 166 164 160 165 166 171 171 164 150
162 163 162 162 167 167 166 169 171 172 173 171 173 168 163 160 159 167 171 169 169 166
162 162 161 166 168 168 166 168 172 172 169 172 170 168 163 160 161 160 161 154 158 159
161 163 166 167 168 168 169 167 162 167 174 168 165 170 165 162 162 161 153 139 145 154
158 163 164 162 165 159 158 155 161 160 163 164 166 173 166 160 168 166 164 161 159 165